| time (UTC) | temp C | wind direction | speed KPH | gust KPH | rain 1hr cm | rain 24hr cm | rain mn cm | humidity % | barometer mb |
| 20260509021549 | 3 | 0.0 | 0.0 | 0.00 | 0.00 | 0.00 | 93 | 1021.0 | |
| 20260509020840 | 3 | 0.0 | 0.0 | 0.00 | 0.00 | 0.00 | 93 | 1021.0 | |
| 20260509020046 | 3 | 0.0 | 0.0 | 0.00 | 0.00 | 0.00 | 93 | 1021.0 | |
| 20260509014844 | 3 | 0.0 | 0.0 | 0.00 | 0.00 | 0.00 | 93 | 1021.0 | |
| 20260509014548 | 3 | 0.0 | 0.0 | 0.00 | 0.00 | 0.00 | 93 | 1021.0 | |
| 20260509013046 | 3 | 0.0 | 0.0 | 0.00 | 0.00 | 0.00 | 93 | 1021.0 | |
| 20260509012843 | 3 | 0.0 | 0.0 | 0.00 | 0.00 | 0.00 | 93 | 1021.0 | |
| 20260509011549 | 3 | 0.0 | 0.0 | 0.00 | 0.00 | 0.00 | 93 | 1021.0 | |
| 20260509010841 | 3 | 30 | 4.8 | 0.0 | 0.00 | 0.00 | 0.00 | 93 | 1021.0 |
| 20260509010050 | 3 | 30 | 4.8 | 0.0 | 0.00 | 0.00 | 0.00 | 93 | 1021.0 |
| 20260509004845 | 3 | 30 | 4.8 | 0.0 | 0.00 | 0.00 | 0.00 | 93 | 1021.0 |
| 20260509004547 | 3 | 30 | 4.8 | 0.0 | 0.00 | 0.00 | 0.00 | 93 | 1021.0 |
| 20260509003046 | 6 | 30 | 4.8 | 0.0 | 0.00 | 0.00 | 0.00 | 86 | 1022.0 |
| 20260509002843 | 6 | 30 | 4.8 | 0.0 | 0.00 | 0.00 | 0.00 | 86 | 1022.0 |
| 20260509001549 | 6 | 30 | 4.8 | 0.0 | 0.00 | 0.00 | 0.00 | 86 | 1022.0 |
| 20260509000842 | 6 | 0.0 | 0.0 | 0.00 | 0.00 | 0.00 | 86 | 1022.0 | |
| 20260509000046 | 6 | 0.0 | 0.0 | 0.00 | 0.00 | 0.00 | 86 | 1022.0 | |
| 20260508234845 | 6 | 0.0 | 0.0 | 0.00 | 0.00 | 0.00 | 86 | 1022.0 | |
| 20260508234548 | 6 | 0.0 | 0.0 | 0.00 | 0.00 | 0.00 | 86 | 1022.0 | |
| 20260508233046 | 6 | 10 | 4.8 | 0.0 | 0.00 | 0.00 | 0.00 | 86 | 1022.0 |
| 20260508232843 | 6 | 10 | 4.8 | 0.0 | 0.00 | 0.00 | 0.00 | 86 | 1022.0 |
| 20260508231549 | 6 | 10 | 4.8 | 0.0 | 0.00 | 0.00 | 0.00 | 86 | 1022.0 |
| 20260508230842 | 7 | 0.0 | 0.0 | 0.00 | 0.00 | 0.00 | 81 | 1022.0 | |
| 20260508230047 | 7 | 0.0 | 0.0 | 0.00 | 0.00 | 0.00 | 81 | 1022.0 | |
| 20260508224845 | 7 | 0.0 | 0.0 | 0.00 | 0.00 | 0.00 | 81 | 1022.0 | |
| 20260508224548 | 7 | 0.0 | 0.0 | 0.00 | 0.00 | 0.00 | 81 | 1022.0 | |
| 20260508223046 | 7 | 20 | 4.8 | 0.0 | 0.00 | 0.00 | 0.00 | 81 | 1022.0 |
| 20260508222843 | 7 | 20 | 4.8 | 0.0 | 0.00 | 0.00 | 0.00 | 81 | 1022.0 |
| 20260508221556 | 7 | 20 | 4.8 | 0.0 | 0.00 | 0.00 | 0.00 | 81 | 1022.0 |
| 20260508220842 | 7 | 20 | 8.0 | 0.0 | 0.00 | 0.00 | 0.00 | 81 | 1021.0 |
| 20260508220049 | 7 | 20 | 8.0 | 0.0 | 0.00 | 0.00 | 0.00 | 81 | 1021.0 |
| 20260508214852 | 7 | 20 | 8.0 | 0.0 | 0.00 | 0.00 | 0.00 | 81 | 1021.0 |
| 20260508214547 | 7 | 20 | 8.0 | 0.0 | 0.00 | 0.00 | 0.00 | 81 | 1021.0 |
| 20260508213046 | 7 | 10 | 8.0 | 0.0 | 0.00 | 0.00 | 0.00 | 70 | 1021.0 |
| 20260508212850 | 7 | 10 | 8.0 | 0.0 | 0.00 | 0.00 | 0.00 | 70 | 1021.0 |
| 20260508211549 | 7 | 10 | 8.0 | 0.0 | 0.00 | 0.00 | 0.00 | 70 | 1021.0 |
| 20260508210849 | 7 | 10 | 4.8 | 0.0 | 0.00 | 0.00 | 0.00 | 70 | 1021.0 |
| 20260508210046 | 7 | 10 | 4.8 | 0.0 | 0.00 | 0.00 | 0.00 | 70 | 1021.0 |
| 20260508204843 | 7 | 10 | 4.8 | 0.0 | 0.00 | 0.00 | 0.00 | 70 | 1021.0 |
| 20260508204547 | 7 | 10 | 4.8 | 0.0 | 0.00 | 0.00 | 0.00 | 70 | 1021.0 |
| 20260508203045 | 8 | 360 | 8.0 | 0.0 | 0.00 | 0.00 | 0.00 | 65 | 1021.0 |
| 20260508202841 | 8 | 360 | 8.0 | 0.0 | 0.00 | 0.00 | 0.00 | 65 | 1021.0 |
| 20260508201548 | 8 | 360 | 8.0 | 0.0 | 0.00 | 0.00 | 0.00 | 65 | 1021.0 |
| 20260508200840 | 10 | 350 | 9.7 | 0.0 | 0.00 | 0.00 | 0.00 | 61 | 1021.0 |
| 20260508200046 | 10 | 350 | 9.7 | 0.0 | 0.00 | 0.00 | 0.00 | 61 | 1021.0 |
| 20260508194843 | 10 | 350 | 9.7 | 0.0 | 0.00 | 0.00 | 0.00 | 61 | 1021.0 |
| 20260508194547 | 10 | 350 | 9.7 | 0.0 | 0.00 | 0.00 | 0.00 | 61 | 1021.0 |
| 20260508193047 | 10 | 10 | 9.7 | 0.0 | 0.00 | 0.00 | 0.00 | 57 | 1021.0 |
| 20260508192842 | 10 | 10 | 9.7 | 0.0 | 0.00 | 0.00 | 0.00 | 57 | 1021.0 |
| 20260508191548 | 10 | 10 | 9.7 | 0.0 | 0.00 | 0.00 | 0.00 | 57 | 1021.0 |
| 20260508190840 | 11 | 360 | 11.3 | 0.0 | 0.00 | 0.00 | 0.00 | 53 | 1020.0 |
| 20260508190047 | 11 | 360 | 11.3 | 0.0 | 0.00 | 0.00 | 0.00 | 53 | 1020.0 |
| 20260508184844 | 11 | 360 | 11.3 | 0.0 | 0.00 | 0.00 | 0.00 | 53 | 1020.0 |
| 20260508184547 | 11 | 360 | 11.3 | 0.0 | 0.00 | 0.00 | 0.00 | 53 | 1020.0 |
| 20260508183045 | 12 | 360 | 12.9 | 0.0 | 0.00 | 0.00 | 0.00 | 54 | 1020.0 |
| 20260508182842 | 12 | 360 | 12.9 | 0.0 | 0.00 | 0.00 | 0.00 | 54 | 1020.0 |
| 20260508181548 | 12 | 360 | 12.9 | 0.0 | 0.00 | 0.00 | 0.00 | 54 | 1020.0 |
| 20260508180841 | 12 | 20 | 12.9 | 0.0 | 0.00 | 0.00 | 0.00 | 54 | 1020.0 |
| 20260508180047 | 12 | 20 | 12.9 | 0.0 | 0.00 | 0.00 | 0.00 | 54 | 1020.0 |
| 20260508174842 | 12 | 20 | 12.9 | 0.0 | 0.00 | 0.00 | 0.00 | 54 | 1020.0 |
| 20260508174547 | 12 | 20 | 12.9 | 0.0 | 0.00 | 0.00 | 0.00 | 54 | 1020.0 |
| 20260508173045 | 12 | 360 | 16.1 | 0.0 | 0.00 | 0.00 | 0.00 | 50 | 1020.0 |
| 20260508172841 | 12 | 360 | 16.1 | 0.0 | 0.00 | 0.00 | 0.00 | 50 | 1020.0 |
| 20260508171548 | 12 | 360 | 16.1 | 0.0 | 0.00 | 0.00 | 0.00 | 50 | 1020.0 |
| 20260508170839 | 13 | 20 | 11.3 | 0.0 | 0.00 | 0.00 | 0.00 | 44 | 1020.0 |
| 20260508170046 | 13 | 20 | 11.3 | 0.0 | 0.00 | 0.00 | 0.00 | 44 | 1020.0 |
| 20260508164844 | 13 | 20 | 11.3 | 0.0 | 0.00 | 0.00 | 0.00 | 44 | 1020.0 |
| 20260508164547 | 13 | 20 | 11.3 | 0.0 | 0.00 | 0.00 | 0.00 | 44 | 1020.0 |
| 20260508163045 | 13 | 40 | 11.3 | 0.0 | 0.00 | 0.00 | 0.00 | 41 | 1020.0 |
| 20260508162842 | 13 | 40 | 11.3 | 0.0 | 0.00 | 0.00 | 0.00 | 41 | 1020.0 |
| 20260508161548 | 13 | 40 | 11.3 | 0.0 | 0.00 | 0.00 | 0.00 | 41 | 1020.0 |
| 20260508160840 | 13 | 360 | 12.9 | 0.0 | 0.00 | 0.00 | 0.00 | 41 | 1020.0 |
| 20260508160046 | 13 | 360 | 12.9 | 0.0 | 0.00 | 0.00 | 0.00 | 41 | 1020.0 |
| 20260508154844 | 13 | 360 | 12.9 | 0.0 | 0.00 | 0.00 | 0.00 | 41 | 1020.0 |
| 20260508154547 | 13 | 360 | 12.9 | 0.0 | 0.00 | 0.00 | 0.00 | 41 | 1020.0 |
| 20260508153046 | 12 | 10 | 11.3 | 0.0 | 0.00 | 0.00 | 0.00 | 50 | 1020.0 |
| 20260508152843 | 12 | 10 | 11.3 | 0.0 | 0.00 | 0.00 | 0.00 | 50 | 1020.0 |
| 20260508151548 | 12 | 10 | 11.3 | 0.0 | 0.00 | 0.00 | 0.00 | 50 | 1020.0 |
| 20260508150841 | 13 | 360 | 11.3 | 0.0 | 0.00 | 0.00 | 0.00 | 47 | 1020.0 |
| 20260508150046 | 13 | 360 | 11.3 | 0.0 | 0.00 | 0.00 | 0.00 | 47 | 1020.0 |
| 20260508144850 | 13 | 360 | 11.3 | 0.0 | 0.00 | 0.00 | 0.00 | 47 | 1020.0 |
| 20260508144547 | 13 | 360 | 11.3 | 0.0 | 0.00 | 0.00 | 0.00 | 47 | 1020.0 |
| 20260508143045 | 12 | 50 | 11.3 | 0.0 | 0.00 | 0.00 | 0.00 | 50 | 1020.0 |
| 20260508142849 | 12 | 50 | 11.3 | 0.0 | 0.00 | 0.00 | 0.00 | 50 | 1020.0 |
| 20260508141555 | 12 | 50 | 11.3 | 0.0 | 0.00 | 0.00 | 0.00 | 50 | 1020.0 |
| 20260508140847 | 12 | 20 | 12.9 | 0.0 | 0.00 | 0.00 | 0.00 | 50 | 1020.0 |
| 20260508140046 | 12 | 20 | 12.9 | 0.0 | 0.00 | 0.00 | 0.00 | 50 | 1020.0 |
| 20260508134843 | 12 | 20 | 12.9 | 0.0 | 0.00 | 0.00 | 0.00 | 50 | 1020.0 |
| 20260508134546 | 12 | 20 | 12.9 | 0.0 | 0.00 | 0.00 | 0.00 | 50 | 1020.0 |
| 20260508133045 | 12 | 20 | 11.3 | 0.0 | 0.00 | 0.00 | 0.00 | 50 | 1021.0 |
| 20260508132842 | 12 | 20 | 11.3 | 0.0 | 0.00 | 0.00 | 0.00 | 50 | 1021.0 |
| 20260508131548 | 12 | 20 | 11.3 | 0.0 | 0.00 | 0.00 | 0.00 | 50 | 1021.0 |
| 20260508130840 | 13 | 30 | 9.7 | 0.0 | 0.00 | 0.00 | 0.00 | 50 | 1021.0 |
| 20260508130047 | 13 | 30 | 9.7 | 0.0 | 0.00 | 0.00 | 0.00 | 50 | 1021.0 |
| 20260508124843 | 13 | 30 | 9.7 | 0.0 | 0.00 | 0.00 | 0.00 | 50 | 1021.0 |
| 20260508124546 | 13 | 30 | 9.7 | 0.0 | 0.00 | 0.00 | 0.00 | 50 | 1021.0 |
| 20260508123045 | 12 | 50 | 12.9 | 0.0 | 0.00 | 0.00 | 0.00 | 50 | 1021.0 |
| 20260508122842 | 12 | 50 | 12.9 | 0.0 | 0.00 | 0.00 | 0.00 | 50 | 1021.0 |
| 20260508121548 | 12 | 50 | 12.9 | 0.0 | 0.00 | 0.00 | 0.00 | 50 | 1021.0 |
| 20260508120840 | 12 | 40 | 12.9 | 0.0 | 0.00 | 0.00 | 0.00 | 50 | 1021.0 |
| 20260508120046 | 12 | 40 | 12.9 | 0.0 | 0.00 | 0.00 | 0.00 | 50 | 1021.0 |
| 20260508114843 | 12 | 40 | 12.9 | 0.0 | 0.00 | 0.00 | 0.00 | 50 | 1021.0 |
| 20260508114546 | 12 | 40 | 12.9 | 0.0 | 0.00 | 0.00 | 0.00 | 50 | 1021.0 |
| 20260508113045 | 12 | 0.0 | 0.0 | 0.00 | 0.00 | 0.00 | 50 | 1021.0 | |
| 20260508112842 | 12 | 0.0 | 0.0 | 0.00 | 0.00 | 0.00 | 50 | 1021.0 | |
| 20260508111548 | 12 | 0.0 | 0.0 | 0.00 | 0.00 | 0.00 | 50 | 1021.0 | |
| 20260508110840 | 12 | 0.0 | 0.0 | 0.00 | 0.00 | 0.00 | 57 | 1021.0 | |
| 20260508110046 | 12 | 0.0 | 0.0 | 0.00 | 0.00 | 0.00 | 57 | 1021.0 | |
| 20260508104843 | 12 | 0.0 | 0.0 | 0.00 | 0.00 | 0.00 | 57 | 1021.0 | |
| 20260508104546 | 12 | 0.0 | 0.0 | 0.00 | 0.00 | 0.00 | 57 | 1021.0 | |
| 20260508103045 | 12 | 60 | 11.3 | 0.0 | 0.00 | 0.00 | 0.00 | 57 | 1021.0 |
| 20260508102841 | 12 | 60 | 11.3 | 0.0 | 0.00 | 0.00 | 0.00 | 57 | 1021.0 |
| 20260508101548 | 12 | 60 | 11.3 | 0.0 | 0.00 | 0.00 | 0.00 | 57 | 1021.0 |
| 20260508100840 | 11 | 80 | 12.9 | 0.0 | 0.00 | 0.00 | 0.00 | 61 | 1021.0 |
| 20260508100046 | 11 | 80 | 12.9 | 0.0 | 0.00 | 0.00 | 0.00 | 61 | 1021.0 |
| 20260508094843 | 11 | 80 | 12.9 | 0.0 | 0.00 | 0.00 | 0.00 | 61 | 1021.0 |
| 20260508094548 | 11 | 80 | 12.9 | 0.0 | 0.00 | 0.00 | 0.00 | 61 | 1021.0 |
| 20260508093045 | 11 | 50 | 12.9 | 0.0 | 0.00 | 0.00 | 0.00 | 57 | 1021.0 |
| 20260508092841 | 11 | 50 | 12.9 | 0.0 | 0.00 | 0.00 | 0.00 | 57 | 1021.0 |
| 20260508091548 | 11 | 50 | 12.9 | 0.0 | 0.00 | 0.00 | 0.00 | 57 | 1021.0 |
| 20260508090839 | 11 | 40 | 11.3 | 0.0 | 0.00 | 0.00 | 0.00 | 61 | 1021.0 |
| 20260508090046 | 11 | 40 | 11.3 | 0.0 | 0.00 | 0.00 | 0.00 | 61 | 1021.0 |
| 20260508084843 | 11 | 40 | 11.3 | 0.0 | 0.00 | 0.00 | 0.00 | 61 | 1021.0 |
| 20260508084547 | 11 | 40 | 11.3 | 0.0 | 0.00 | 0.00 | 0.00 | 61 | 1021.0 |
| 20260508083045 | 10 | 50 | 12.9 | 0.0 | 0.00 | 0.00 | 0.00 | 61 | 1021.0 |
| 20260508082842 | 10 | 50 | 12.9 | 0.0 | 0.00 | 0.00 | 0.00 | 61 | 1021.0 |
| 20260508081547 | 10 | 50 | 12.9 | 0.0 | 0.00 | 0.00 | 0.00 | 61 | 1021.0 |
| 20260508080840 | 10 | 20 | 14.5 | 0.0 | 0.00 | 0.00 | 0.00 | 66 | 1021.0 |
| 20260508080045 | 10 | 20 | 14.5 | 0.0 | 0.00 | 0.00 | 0.00 | 66 | 1021.0 |
| 20260508074844 | 10 | 20 | 14.5 | 0.0 | 0.00 | 0.00 | 0.00 | 66 | 1021.0 |
| 20260508074546 | 10 | 20 | 14.5 | 0.0 | 0.00 | 0.00 | 0.00 | 66 | 1021.0 |
| 20260508073046 | 8 | 20 | 11.3 | 0.0 | 0.00 | 0.00 | 0.00 | 65 | 1021.0 |
| 20260508072842 | 8 | 20 | 11.3 | 0.0 | 0.00 | 0.00 | 0.00 | 65 | 1021.0 |
| 20260508071548 | 8 | 20 | 11.3 | 0.0 | 0.00 | 0.00 | 0.00 | 65 | 1021.0 |
| 20260508070841 | 8 | 20 | 9.7 | 0.0 | 0.00 | 0.00 | 0.00 | 70 | 1020.0 |
| 20260508070045 | 8 | 20 | 9.7 | 0.0 | 0.00 | 0.00 | 0.00 | 70 | 1020.0 |
| 20260508064845 | 8 | 20 | 9.7 | 0.0 | 0.00 | 0.00 | 0.00 | 70 | 1020.0 |
| 20260508064546 | 8 | 20 | 9.7 | 0.0 | 0.00 | 0.00 | 0.00 | 70 | 1020.0 |
| 20260508063045 | 7 | 20 | 9.7 | 0.0 | 0.00 | 0.00 | 0.00 | 75 | 1020.0 |
| 20260508062843 | 7 | 20 | 9.7 | 0.0 | 0.00 | 0.00 | 0.00 | 75 | 1020.0 |
| 20260508061548 | 7 | 20 | 9.7 | 0.0 | 0.00 | 0.00 | 0.00 | 75 | 1020.0 |
| 20260508060842 | 7 | 10 | 4.8 | 0.0 | 0.00 | 0.00 | 0.00 | 81 | 1020.0 |
| 20260508060045 | 7 | 10 | 4.8 | 0.0 | 0.00 | 0.00 | 0.00 | 81 | 1020.0 |
| 20260508054844 | 7 | 10 | 4.8 | 0.0 | 0.00 | 0.00 | 0.00 | 81 | 1020.0 |
| 20260508054546 | 7 | 10 | 4.8 | 0.0 | 0.00 | 0.00 | 0.00 | 81 | 1020.0 |
| 20260508053045 | 6 | 340 | 8.0 | 0.0 | 0.00 | 0.00 | 0.00 | 86 | 1020.0 |
| 20260508052842 | 6 | 340 | 8.0 | 0.0 | 0.00 | 0.00 | 0.00 | 86 | 1020.0 |
| 20260508051548 | 6 | 340 | 8.0 | 0.0 | 0.00 | 0.00 | 0.00 | 86 | 1020.0 |
| 20260508050840 | 3 | 0.0 | 0.0 | 0.00 | 0.00 | 0.00 | 86 | 1020.0 | |
| 20260508050045 | 3 | 0.0 | 0.0 | 0.00 | 0.00 | 0.00 | 86 | 1020.0 | |
| 20260508044844 | 3 | 0.0 | 0.0 | 0.00 | 0.00 | 0.00 | 86 | 1020.0 | |
| 20260508044546 | 3 | 0.0 | 0.0 | 0.00 | 0.00 | 0.00 | 86 | 1020.0 | |
| 20260508043045 | 3 | 10 | 4.8 | 0.0 | 0.00 | 0.00 | 0.00 | 86 | 1020.0 |
| 20260508042842 | 3 | 10 | 4.8 | 0.0 | 0.00 | 0.00 | 0.00 | 86 | 1020.0 |
| 20260508041548 | 3 | 10 | 4.8 | 0.0 | 0.00 | 0.00 | 0.00 | 86 | 1020.0 |
| 20260508040840 | 3 | 360 | 4.8 | 0.0 | 0.00 | 0.00 | 0.00 | 86 | 1020.0 |
| 20260508040045 | 3 | 360 | 4.8 | 0.0 | 0.00 | 0.00 | 0.00 | 86 | 1020.0 |
| 20260508034844 | 3 | 360 | 4.8 | 0.0 | 0.00 | 0.00 | 0.00 | 86 | 1020.0 |
| 20260508034546 | 3 | 360 | 4.8 | 0.0 | 0.00 | 0.00 | 0.00 | 86 | 1020.0 |
| 20260508033044 | 3 | 0.0 | 0.0 | 0.00 | 0.00 | 0.00 | 86 | 1020.0 | |
| 20260508032842 | 3 | 0.0 | 0.0 | 0.00 | 0.00 | 0.00 | 86 | 1020.0 | |
| 20260508031548 | 3 | 0.0 | 0.0 | 0.00 | 0.00 | 0.00 | 86 | 1020.0 | |
| 20260508030840 | 3 | 0.0 | 0.0 | 0.00 | 0.00 | 0.00 | 86 | 1019.0 | |
| 20260508030045 | 3 | 0.0 | 0.0 | 0.00 | 0.00 | 0.00 | 86 | 1019.0 | |
| 20260508024845 | 3 | 0.0 | 0.0 | 0.00 | 0.00 | 0.00 | 86 | 1019.0 | |
| 20260508024546 | 3 | 0.0 | 0.0 | 0.00 | 0.00 | 0.00 | 86 | 1019.0 | |
| 20260508023044 | 6 | 10 | 4.8 | 0.0 | 0.00 | 0.00 | 0.00 | 80 | 1019.0 |
| 20260508022843 | 6 | 10 | 4.8 | 0.0 | 0.00 | 0.00 | 0.00 | 80 | 1019.0 |